GEFSMA_prec_meanprecacc_348.txt.gz
Total_Precipitation_Accumulation
1.35 1.31 1.40 1.65 1.75 1.83 2.09 2.20 2.07 2.00 1.95 1.83 1.68 1.53 1.42 1.34 1.33 1.31 1.70 2.24 2.81 3.49 3.95 3.84 3.40 2.88 2.70 2.80 2.70 2.57 2.45 2.67 3.28 3.46 3.41 3.37 3.25 3.28 3.08 2.71 2.46 2.38 2.36
1.35 1.36 1.31 1.48 1.77 1.88 1.95 1.97 1.90 1.95 1.95 1.88 1.74 1.67 1.60 1.40 1.48 1.47 1.57 1.67 1.95 2.46 3.25 3.73 3.54 3.08 2.85 2.80 2.67 2.59 2.48 2.51 3.15 3.45 3.49 3.43 3.32 3.32 2.94 2.61 2.53 2.41 2.43
1.34 1.32 1.24 1.37 1.63 1.86 1.92 1.91 1.87 1.96 1.88 1.73 1.76 1.75 1.71 1.57 1.60 1.65 1.62 1.59 1.53 1.81 2.47 3.20 3.39 3.25 3.19 3.19 2.96 2.81 2.74 2.79 2.93 3.24 3.42 3.46 3.37 3.25 2.88 2.58 2.40 2.47 2.54
1.30 1.42 1.38 1.34 1.54 1.80 2.06 2.22 2.09 2.05 2.00 1.88 1.90 1.85 1.72 1.73 1.71 1.69 1.64 1.64 1.66 1.55 1.76 2.15 2.62 3.09 3.34 3.52 3.33 3.15 2.86 2.59 2.55 2.84 3.17 3.40 3.47 3.24 3.12 2.86 2.57 2.54 2.73
1.25 1.49 1.62 1.54 1.61 1.85 1.99 2.07 2.11 2.00 1.99 1.94 1.79 1.75 1.67 1.74 1.79 1.62 1.61 1.61 1.69 1.66 1.60 1.45 1.68 2.20 2.80 3.49 3.68 3.34 3.10 2.76 2.48 2.56 2.81 3.13 3.36 3.26 3.12 2.92 2.68 2.52 2.58
1.47 1.61 1.74 1.77 1.81 1.94 1.96 2.14 2.39 2.23 2.03 1.98 1.80 1.70 1.65 1.68 1.71 1.69 1.73 1.73 1.73 1.70 1.66 1.49 1.45 1.43 1.88 2.60 3.28 3.23 3.25 3.10 2.71 2.56 2.67 2.78 2.99 3.14 2.91 2.84 2.84 2.65 2.55
1.75 1.87 1.98 2.04 2.00 1.94 2.02 2.23 2.65 2.61 2.31 2.07 2.05 1.94 1.80 1.75 1.77 1.72 1.82 1.89 1.79 1.74 1.78 1.70 1.56 1.43 1.36 1.56 2.17 2.82 3.11 3.29 3.07 2.80 2.72 2.80 2.83 3.04 2.93 2.78 2.98 2.96 2.81
1.88 1.94 2.15 2.26 2.22 2.22 2.30 2.37 2.67 2.89 2.66 2.45 2.47 2.67 2.44 2.23 1.86 1.56 1.59 1.67 1.71 1.75 1.74 1.76 1.67 1.54 1.49 1.43 1.36 1.92 2.45 2.87 3.11 2.98 2.82 2.82 2.87 3.01 3.12 3.04 3.04 3.22 3.16
2.10 2.04 2.12 2.29 2.32 2.32 2.39 2.60 2.90 3.27 3.28 2.97 2.72 2.94 2.73 2.44 2.32 1.80 1.47 1.49 1.62 1.73 1.75 1.81 1.78 1.65 1.59 1.63 1.42 1.32 1.57 2.07 2.78 3.07 3.09 3.05 3.03 3.07 3.15 3.20 3.40 3.37 3.33
2.04 2.05 2.09 2.24 2.40 2.55 2.69 2.73 2.70 3.16 3.54 3.36 3.12 2.72 2.44 2.31 2.45 2.32 1.84 1.51 1.53 1.57 1.64 1.65 1.76 1.85 1.79 1.71 1.55 1.19 1.13 1.44 2.30 3.13 3.42 3.30 3.11 3.06 3.28 3.46 3.51 3.26 3.17
2.17 2.07 2.04 2.07 2.10 2.22 2.38 2.52 2.59 2.86 3.15 3.36 3.32 3.08 2.77 2.58 2.13 2.14 2.22 1.97 1.69 1.44 1.42 1.54 1.73 1.81 1.83 1.70 1.68 1.33 1.10 1.06 1.47 2.33 3.10 3.35 3.29 3.25 3.49 3.61 3.41 3.21 3.10
2.15 2.02 1.94 1.99 1.99 1.98 2.11 2.24 2.38 2.66 2.89 3.06 3.15 3.06 2.96 2.89 2.58 2.28 2.08 2.04 1.90 1.65 1.47 1.47 1.54 1.62 1.69 1.64 1.52 1.53 1.29 1.04 1.06 1.36 1.94 2.66 3.02 3.17 3.33 3.49 3.45 3.24 3.29
1.72 1.69 1.61 1.63 1.73 1.79 1.95 2.02 1.99 2.08 2.30 2.54 2.74 2.82 2.86 2.77 2.69 2.60 2.43 2.18 1.91 1.57 1.55 1.46 1.42 1.53 1.55 1.65 1.61 1.76 1.41 1.17 1.05 1.06 1.28 1.64 2.03 2.42 2.92 3.21 3.44 3.47 3.54
1.37 1.34 1.33 1.33 1.39 1.45 1.63 1.84 1.86 1.89 1.97 2.09 2.17 2.47 2.67 2.64 2.67 2.46 2.35 2.37 2.10 1.75 1.56 1.36 1.24 1.29 1.36 1.49 1.76 1.87 1.37 1.26 1.10 1.12 1.20 1.22 1.40 1.61 2.06 2.59 2.89 3.15 3.35
1.11 1.09 1.13 1.22 1.29 1.28 1.37 1.49 1.68 1.74 1.82 1.91 1.91 2.10 2.29 2.38 2.40 2.24 2.26 2.36 2.27 1.96 1.70 1.50 1.40 1.31 1.29 1.34 1.65 1.53 1.37 1.34 1.22 1.19 1.18 1.16 1.19 1.26 1.48 1.77 2.03 2.21 2.39
0.99 1.00 0.99 1.04 1.12 1.16 1.26 1.37 1.40 1.50 1.59 1.76 1.93 2.05 2.11 2.15 2.23 2.16 2.15 2.26 2.26 2.09 1.82 1.56 1.39 1.30 1.34 1.28 1.49 1.38 1.47 1.55 1.25 1.12 1.07 1.10 1.08 1.05 1.06 1.16 1.33 1.49 1.58
0.85 0.86 0.89 0.99 1.01 1.04 1.10 1.11 1.14 1.20 1.27 1.38 1.44 1.58 1.81 2.01 2.12 2.14 2.20 2.26 2.28 2.14 1.87 1.69 1.43 1.38 1.47 1.40 1.41 1.38 1.48 1.52 1.28 1.16 1.02 0.99 0.99 0.97 1.00 0.98 1.00 1.09 1.19
0.80 0.82 0.89 0.94 0.94 1.00 1.03 1.01 1.03 1.09 1.20 1.28 1.30 1.33 1.45 1.71 1.88 2.02 2.13 2.17 2.22 2.18 1.98 1.93 1.80 1.54 1.45 1.42 1.52 1.63 1.57 1.55 1.48 1.45 1.30 1.09 1.02 0.99 0.97 0.96 0.92 0.89 0.91
0.96 1.00 0.99 1.02 0.97 0.98 1.00 0.99 1.04 1.09 1.10 1.15 1.19 1.20 1.31 1.43 1.58 1.69 1.82 1.95 2.02 2.14 2.13 1.92 1.95 1.86 1.61 1.54 1.54 1.64 1.72 1.83 1.69 1.62 1.64 1.46 1.24 1.15 1.08 1.01 0.94 0.91 0.88
0.86 0.89 0.96 1.03 1.10 1.14 1.11 1.07 1.11 1.13 1.08 1.08 1.13 1.20 1.23 1.26 1.45 1.67 1.78 1.89 1.94 2.05 2.19 2.08 1.97 1.91 1.76 1.68 1.63 1.67 1.85 1.95 1.94 1.68 1.56 1.49 1.43 1.32 1.21 1.12 1.02 1.00 0.99
0.78 0.76 0.84 0.93 1.03 1.12 1.16 1.16 1.04 0.98 1.00 1.06 1.05 1.03 1.10 1.22 1.36 1.57 1.66 1.89 1.93 2.07 2.16 2.16 2.02 1.83 1.71 1.68 1.63 1.61 1.78 2.01 2.05 1.95 1.77 1.54 1.43 1.27 1.18 1.16 1.15 1.13 1.10
0.85 0.79 0.77 0.76 0.79 0.84 1.05 1.06 0.94 0.82 0.87 1.00 1.07 1.05 1.04 1.11 1.19 1.29 1.33 1.58 1.78 1.92 2.02 2.00 1.98 1.82 1.66 1.61 1.70 1.73 1.76 1.85 1.98 1.93 1.74 1.77 1.68 1.48 1.31 1.18 1.27 1.33 1.33
0.85 0.84 0.75 0.67 0.67 0.74 0.82 0.80 0.86 0.83 0.84 0.91 1.00 1.07 1.11 1.08 1.16 1.24 1.27 1.38 1.49 1.55 1.69 1.79 1.78 1.69 1.66 1.60 1.69 1.73 1.74 1.70 1.63 1.71 1.67 1.76 1.77 1.60 1.39 1.29 1.33 1.29 1.29
0.77 0.83 0.75 0.70 0.74 0.75 0.78 0.80 0.84 0.81 0.91 0.99 0.99 0.98 1.11 1.16 1.21 1.37 1.36 1.43 1.38 1.32 1.36 1.44 1.57 1.60 1.56 1.64 1.72 1.90 1.99 1.86 1.72 1.73 1.70 1.65 1.59 1.51 1.34 1.31 1.35 1.21 1.17
0.72 0.67 0.70 0.84 0.84 0.86 0.97 0.88 0.79 0.79 0.91 0.98 0.93 0.96 1.08 1.16 1.37 1.50 1.49 1.48 1.38 1.31 1.39 1.50 1.61 1.69 1.69 1.74 1.83 1.90 1.95 1.97 1.89 1.83 1.69 1.57 1.44 1.43 1.39 1.30 1.26 1.29 1.23
0.71 0.73 0.75 0.87 0.91 0.93 0.98 0.86 0.82 0.86 0.94 1.01 0.99 0.97 1.19 1.18 1.32 1.39 1.43 1.54 1.52 1.39 1.37 1.37 1.41 1.47 1.47 1.55 1.81 1.84 1.97 2.06 1.91 1.84 1.68 1.58 1.53 1.64 1.70 1.46 1.25 1.21 1.20

GEFSMA_prec_meanprecacc_354.txt.gz
Total_Precipitation_Accumulation
1.36 1.32 1.41 1.67 1.78 1.86 2.11 2.22 2.08 2.00 1.95 1.84 1.69 1.55 1.45 1.36 1.35 1.34 1.76 2.30 2.88 3.57 4.10 4.11 3.67 3.10 2.88 2.93 2.83 2.69 2.55 2.74 3.32 3.49 3.43 3.40 3.28 3.31 3.12 2.76 2.51 2.43 2.41
1.37 1.37 1.32 1.49 1.78 1.91 2.00 1.99 1.91 1.95 1.95 1.88 1.75 1.68 1.62 1.42 1.49 1.48 1.58 1.69 1.97 2.49 3.31 3.86 3.68 3.21 2.96 2.87 2.73 2.63 2.51 2.54 3.17 3.47 3.50 3.45 3.36 3.36 2.96 2.64 2.57 2.46 2.49
1.35 1.33 1.25 1.37 1.65 1.89 1.96 1.94 1.88 1.96 1.88 1.73 1.76 1.76 1.71 1.58 1.61 1.66 1.63 1.61 1.54 1.82 2.49 3.24 3.44 3.31 3.24 3.22 2.99 2.84 2.76 2.81 2.96 3.26 3.44 3.48 3.40 3.27 2.89 2.60 2.43 2.51 2.61
1.31 1.43 1.39 1.35 1.56 1.83 2.09 2.25 2.11 2.06 2.00 1.88 1.90 1.86 1.73 1.74 1.71 1.70 1.66 1.66 1.67 1.56 1.77 2.17 2.65 3.14 3.38 3.57 3.37 3.18 2.88 2.62 2.58 2.88 3.19 3.42 3.49 3.26 3.13 2.87 2.59 2.58 2.78
1.26 1.50 1.63 1.55 1.63 1.87 2.01 2.09 2.13 2.01 2.00 1.94 1.79 1.76 1.68 1.74 1.79 1.63 1.61 1.63 1.70 1.68 1.61 1.45 1.69 2.21 2.82 3.52 3.72 3.39 3.12 2.78 2.51 2.59 2.83 3.14 3.38 3.28 3.14 2.93 2.70 2.54 2.61
1.49 1.62 1.75 1.78 1.81 1.96 1.98 2.15 2.39 2.23 2.04 1.98 1.80 1.71 1.66 1.68 1.71 1.69 1.73 1.73 1.73 1.71 1.67 1.50 1.45 1.44 1.88 2.61 3.30 3.27 3.29 3.12 2.72 2.59 2.70 2.80 3.01 3.16 2.93 2.86 2.86 2.67 2.57
1.77 1.88 1.98 2.05 2.01 1.95 2.04 2.25 2.66 2.63 2.32 2.07 2.06 1.95 1.81 1.75 1.77 1.72 1.82 1.89 1.79 1.74 1.79 1.71 1.57 1.43 1.37 1.57 2.18 2.85 3.15 3.33 3.10 2.84 2.76 2.82 2.85 3.06 2.95 2.80 2.99 2.98 2.84
1.89 1.95 2.16 2.28 2.24 2.24 2.32 2.39 2.69 2.91 2.67 2.46 2.48 2.68 2.45 2.24 1.86 1.56 1.59 1.67 1.71 1.76 1.74 1.76 1.67 1.54 1.50 1.44 1.37 1.93 2.47 2.91 3.15 3.02 2.86 2.85 2.89 3.03 3.13 3.06 3.07 3.25 3.18
2.10 2.06 2.13 2.30 2.33 2.34 2.41 2.61 2.91 3.29 3.30 2.98 2.72 2.95 2.74 2.45 2.33 1.80 1.48 1.49 1.62 1.74 1.76 1.82 1.78 1.65 1.60 1.64 1.43 1.33 1.58 2.07 2.80 3.12 3.14 3.09 3.06 3.10 3.17 3.23 3.43 3.40 3.35
2.06 2.07 2.11 2.26 2.42 2.57 2.70 2.73 2.71 3.18 3.56 3.38 3.13 2.73 2.44 2.31 2.46 2.32 1.84 1.51 1.54 1.58 1.64 1.66 1.76 1.85 1.79 1.72 1.57 1.20 1.13 1.44 2.30 3.16 3.48 3.35 3.14 3.09 3.31 3.50 3.54 3.29 3.20
2.18 2.09 2.06 2.08 2.12 2.23 2.39 2.53 2.60 2.88 3.16 3.37 3.33 3.09 2.77 2.58 2.13 2.14 2.22 1.98 1.69 1.44 1.42 1.55 1.74 1.82 1.83 1.71 1.71 1.34 1.11 1.07 1.48 2.35 3.14 3.42 3.34 3.31 3.54 3.67 3.45 3.25 3.14
2.16 2.03 1.95 2.00 2.00 1.99 2.12 2.25 2.39 2.68 2.90 3.08 3.16 3.07 2.97 2.90 2.59 2.28 2.09 2.05 1.91 1.65 1.47 1.47 1.54 1.62 1.70 1.65 1.53 1.54 1.30 1.05 1.07 1.37 1.96 2.71 3.06 3.21 3.39 3.57 3.53 3.30 3.33
1.73 1.71 1.62 1.64 1.75 1.81 1.97 2.04 2.00 2.10 2.32 2.56 2.76 2.83 2.87 2.77 2.69 2.61 2.44 2.18 1.91 1.58 1.55 1.46 1.43 1.54 1.55 1.66 1.63 1.77 1.42 1.19 1.08 1.07 1.29 1.66 2.05 2.46 2.97 3.27 3.51 3.56 3.61
1.39 1.36 1.34 1.35 1.41 1.46 1.64 1.85 1.87 1.90 1.99 2.10 2.18 2.48 2.69 2.65 2.68 2.47 2.36 2.38 2.11 1.76 1.56 1.36 1.25 1.30 1.37 1.49 1.77 1.89 1.39 1.29 1.13 1.14 1.21 1.23 1.42 1.63 2.08 2.63 2.93 3.19 3.41
1.12 1.12 1.15 1.24 1.30 1.28 1.37 1.50 1.69 1.75 1.84 1.92 1.92 2.12 2.31 2.40 2.40 2.25 2.27 2.37 2.28 1.97 1.71 1.51 1.40 1.31 1.30 1.36 1.66 1.55 1.40 1.36 1.25 1.22 1.20 1.18 1.20 1.27 1.49 1.79 2.06 2.23 2.42
1.00 1.01 1.00 1.06 1.14 1.17 1.27 1.38 1.41 1.51 1.59 1.77 1.95 2.07 2.12 2.17 2.24 2.17 2.16 2.27 2.27 2.10 1.83 1.57 1.40 1.31 1.36 1.29 1.50 1.40 1.50 1.58 1.29 1.15 1.10 1.11 1.09 1.06 1.06 1.17 1.34 1.50 1.59
0.86 0.86 0.90 1.00 1.03 1.05 1.11 1.11 1.14 1.21 1.27 1.39 1.46 1.61 1.84 2.04 2.13 2.15 2.21 2.27 2.29 2.15 1.88 1.70 1.44 1.39 1.48 1.42 1.43 1.40 1.50 1.55 1.32 1.19 1.04 1.00 1.00 0.98 1.02 0.99 1.01 1.10 1.19
0.81 0.83 0.91 0.95 0.95 1.01 1.05 1.02 1.04 1.11 1.22 1.29 1.31 1.34 1.46 1.73 1.91 2.04 2.15 2.19 2.23 2.19 1.99 1.94 1.81 1.56 1.47 1.44 1.54 1.64 1.59 1.57 1.50 1.47 1.31 1.10 1.02 1.00 0.99 0.98 0.94 0.91 0.92
0.97 1.00 1.00 1.04 0.99 1.00 1.01 1.01 1.05 1.10 1.11 1.17 1.20 1.21 1.31 1.44 1.60 1.72 1.85 1.98 2.05 2.16 2.14 1.94 1.97 1.87 1.63 1.56 1.56 1.65 1.73 1.85 1.71 1.64 1.66 1.47 1.26 1.17 1.10 1.02 0.96 0.92 0.90
0.87 0.90 0.97 1.04 1.11 1.15 1.12 1.08 1.13 1.15 1.09 1.09 1.14 1.20 1.24 1.27 1.46 1.69 1.81 1.93 1.97 2.09 2.22 2.11 2.02 1.94 1.78 1.71 1.66 1.68 1.86 1.97 1.95 1.70 1.58 1.51 1.45 1.34 1.24 1.14 1.03 1.01 1.00
0.79 0.77 0.85 0.93 1.04 1.13 1.17 1.17 1.06 1.00 1.02 1.07 1.06 1.04 1.12 1.24 1.37 1.58 1.68 1.92 1.97 2.12 2.21 2.21 2.07 1.87 1.73 1.70 1.66 1.63 1.80 2.02 2.07 1.96 1.79 1.56 1.45 1.30 1.21 1.19 1.16 1.14 1.12
0.86 0.80 0.78 0.77 0.80 0.85 1.06 1.08 0.95 0.84 0.89 1.02 1.09 1.06 1.05 1.12 1.21 1.31 1.36 1.61 1.81 1.96 2.08 2.06 2.03 1.86 1.70 1.63 1.73 1.76 1.79 1.87 1.99 1.94 1.75 1.78 1.69 1.49 1.34 1.20 1.29 1.34 1.35
0.87 0.85 0.76 0.68 0.69 0.75 0.84 0.82 0.88 0.85 0.86 0.93 1.02 1.09 1.13 1.10 1.18 1.26 1.29 1.40 1.51 1.58 1.72 1.83 1.83 1.74 1.71 1.65 1.73 1.77 1.78 1.72 1.64 1.72 1.68 1.77 1.78 1.61 1.41 1.31 1.35 1.30 1.30
0.79 0.85 0.77 0.71 0.75 0.77 0.80 0.82 0.86 0.82 0.93 1.02 1.01 1.00 1.14 1.18 1.22 1.39 1.38 1.46 1.41 1.36 1.40 1.47 1.60 1.64 1.60 1.69 1.77 1.93 2.02 1.89 1.74 1.74 1.72 1.68 1.61 1.52 1.36 1.34 1.38 1.23 1.19
0.74 0.68 0.71 0.85 0.85 0.87 0.98 0.90 0.81 0.81 0.93 1.01 0.97 0.99 1.11 1.19 1.39 1.52 1.52 1.51 1.41 1.34 1.43 1.53 1.65 1.73 1.73 1.79 1.87 1.94 1.98 1.99 1.91 1.85 1.71 1.59 1.48 1.48 1.43 1.33 1.29 1.32 1.26
0.73 0.74 0.77 0.89 0.92 0.95 1.01 0.88 0.85 0.89 0.98 1.05 1.03 1.02 1.23 1.21 1.35 1.41 1.45 1.56 1.54 1.42 1.40 1.41 1.45 1.51 1.50 1.59 1.84 1.88 2.01 2.09 1.93 1.86 1.70 1.60 1.56 1.69 1.76 1.49 1.28 1.24 1.23

GEFSMA_prec_meanprecacc_360.txt.gz
Total_Precipitation_Accumulation
1.42 1.36 1.44 1.70 1.80 1.89 2.14 2.25 2.11 2.02 1.97 1.86 1.71 1.56 1.47 1.38 1.37 1.37 1.79 2.33 2.92 3.62 4.17 4.19 3.80 3.26 3.00 3.07 2.94 2.78 2.62 2.80 3.37 3.54 3.47 3.45 3.34 3.37 3.17 2.79 2.54 2.49 2.48
1.42 1.40 1.34 1.49 1.80 1.94 2.02 2.02 1.93 1.96 1.96 1.89 1.76 1.70 1.64 1.43 1.52 1.51 1.61 1.71 2.00 2.52 3.37 4.00 3.90 3.45 3.17 3.06 2.88 2.74 2.58 2.58 3.20 3.49 3.52 3.47 3.39 3.40 2.98 2.66 2.60 2.51 2.55
1.37 1.34 1.26 1.38 1.65 1.90 1.98 1.98 1.90 1.97 1.88 1.73 1.77 1.76 1.72 1.60 1.64 1.67 1.65 1.63 1.56 1.84 2.52 3.33 3.61 3.54 3.45 3.39 3.10 2.91 2.81 2.84 2.98 3.28 3.45 3.50 3.41 3.29 2.91 2.62 2.46 2.54 2.65
1.33 1.45 1.41 1.36 1.57 1.85 2.11 2.28 2.15 2.08 2.01 1.89 1.91 1.86 1.73 1.76 1.72 1.71 1.67 1.68 1.69 1.58 1.79 2.20 2.71 3.24 3.49 3.65 3.42 3.22 2.91 2.64 2.60 2.90 3.21 3.44 3.51 3.28 3.15 2.88 2.62 2.62 2.82
1.29 1.51 1.64 1.56 1.64 1.89 2.03 2.11 2.16 2.04 2.02 1.96 1.80 1.77 1.69 1.75 1.80 1.63 1.62 1.63 1.71 1.69 1.63 1.48 1.71 2.25 2.85 3.55 3.75 3.41 3.15 2.80 2.53 2.61 2.86 3.16 3.40 3.31 3.17 2.97 2.73 2.58 2.65
1.51 1.63 1.76 1.78 1.82 1.97 2.00 2.18 2.43 2.27 2.06 2.00 1.81 1.71 1.66 1.68 1.71 1.69 1.73 1.73 1.74 1.71 1.68 1.52 1.47 1.46 1.90 2.63 3.31 3.29 3.31 3.14 2.74 2.60 2.71 2.82 3.04 3.19 2.96 2.89 2.89 2.70 2.61
1.80 1.90 1.99 2.06 2.03 1.97 2.06 2.27 2.70 2.66 2.33 2.08 2.07 1.96 1.82 1.75 1.78 1.72 1.82 1.89 1.79 1.75 1.79 1.72 1.59 1.45 1.38 1.57 2.19 2.86 3.16 3.35 3.12 2.85 2.78 2.84 2.87 3.08 2.97 2.82 3.02 3.01 2.86
1.91 1.97 2.17 2.29 2.25 2.26 2.34 2.40 2.70 2.93 2.68 2.47 2.49 2.70 2.47 2.25 1.88 1.57 1.60 1.67 1.72 1.76 1.75 1.76 1.68 1.55 1.52 1.45 1.39 1.93 2.47 2.91 3.17 3.04 2.88 2.87 2.91 3.05 3.15 3.08 3.09 3.28 3.21
2.13 2.08 2.15 2.32 2.35 2.36 2.44 2.62 2.92 3.30 3.32 2.99 2.73 2.96 2.76 2.47 2.34 1.82 1.49 1.50 1.62 1.74 1.76 1.83 1.79 1.66 1.60 1.65 1.46 1.35 1.58 2.08 2.81 3.14 3.16 3.12 3.09 3.13 3.20 3.25 3.46 3.43 3.38
2.07 2.09 2.14 2.28 2.45 2.60 2.74 2.76 2.72 3.20 3.59 3.41 3.14 2.74 2.46 2.33 2.47 2.34 1.85 1.52 1.54 1.58 1.65 1.66 1.77 1.86 1.80 1.73 1.59 1.22 1.14 1.45 2.31 3.17 3.49 3.38 3.19 3.14 3.34 3.52 3.57 3.31 3.22
2.19 2.12 2.10 2.12 2.14 2.26 2.43 2.56 2.62 2.90 3.19 3.41 3.38 3.12 2.80 2.60 2.14 2.15 2.23 1.99 1.70 1.45 1.42 1.55 1.74 1.83 1.84 1.73 1.73 1.36 1.12 1.07 1.48 2.35 3.16 3.46 3.40 3.37 3.58 3.70 3.48 3.27 3.16
2.17 2.05 1.98 2.03 2.02 2.01 2.14 2.27 2.41 2.70 2.92 3.09 3.18 3.08 3.00 2.92 2.60 2.29 2.10 2.06 1.92 1.66 1.48 1.48 1.55 1.63 1.71 1.67 1.55 1.55 1.31 1.05 1.07 1.37 1.97 2.73 3.10 3.27 3.44 3.61 3.57 3.32 3.35
1.75 1.72 1.64 1.65 1.76 1.82 1.98 2.06 2.02 2.11 2.34 2.58 2.77 2.83 2.87 2.77 2.70 2.62 2.45 2.19 1.92 1.59 1.56 1.47 1.44 1.55 1.56 1.67 1.65 1.78 1.43 1.19 1.08 1.08 1.30 1.69 2.10 2.52 3.03 3.32 3.55 3.59 3.64
1.40 1.37 1.36 1.36 1.42 1.47 1.65 1.87 1.90 1.92 2.01 2.13 2.20 2.50 2.70 2.66 2.69 2.48 2.37 2.39 2.12 1.77 1.57 1.37 1.26 1.31 1.38 1.50 1.78 1.90 1.40 1.29 1.14 1.15 1.24 1.27 1.46 1.68 2.14 2.67 2.97 3.24 3.45
1.13 1.13 1.17 1.26 1.32 1.30 1.38 1.51 1.70 1.77 1.84 1.93 1.94 2.13 2.33 2.42 2.42 2.26 2.28 2.38 2.30 1.98 1.72 1.52 1.41 1.32 1.31 1.36 1.67 1.57 1.42 1.37 1.26 1.24 1.23 1.20 1.23 1.31 1.53 1.82 2.09 2.27 2.46
1.01 1.02 1.01 1.08 1.16 1.19 1.28 1.39 1.41 1.51 1.60 1.78 1.96 2.08 2.14 2.19 2.26 2.18 2.18 2.29 2.29 2.12 1.85 1.59 1.41 1.33 1.37 1.30 1.51 1.43 1.52 1.59 1.30 1.17 1.13 1.14 1.12 1.09 1.09 1.19 1.35 1.52 1.62
0.87 0.88 0.91 1.01 1.05 1.07 1.12 1.13 1.15 1.22 1.28 1.40 1.47 1.62 1.86 2.06 2.15 2.16 2.22 2.29 2.31 2.17 1.90 1.72 1.45 1.40 1.50 1.42 1.44 1.43 1.54 1.57 1.33 1.20 1.06 1.02 1.03 1.00 1.03 1.00 1.03 1.12 1.21
0.83 0.84 0.92 0.97 0.97 1.04 1.07 1.04 1.06 1.13 1.24 1.31 1.33 1.36 1.47 1.75 1.92 2.05 2.16 2.20 2.25 2.20 2.01 1.96 1.84 1.58 1.49 1.45 1.54 1.65 1.61 1.60 1.52 1.49 1.33 1.11 1.04 1.02 1.00 0.99 0.96 0.93 0.94
0.98 1.02 1.02 1.06 1.00 1.02 1.03 1.03 1.08 1.14 1.15 1.20 1.22 1.22 1.33 1.45 1.62 1.74 1.88 2.01 2.07 2.18 2.16 1.96 1.99 1.89 1.64 1.58 1.58 1.67 1.74 1.86 1.73 1.66 1.68 1.49 1.28 1.19 1.12 1.04 0.97 0.94 0.91
0.89 0.91 0.98 1.06 1.14 1.17 1.13 1.10 1.15 1.18 1.13 1.13 1.16 1.22 1.26 1.29 1.49 1.72 1.83 1.95 2.01 2.13 2.26 2.16 2.06 1.98 1.81 1.73 1.69 1.71 1.88 1.98 1.97 1.72 1.60 1.53 1.47 1.36 1.26 1.17 1.06 1.03 1.02
0.80 0.78 0.86 0.95 1.06 1.15 1.19 1.18 1.08 1.02 1.04 1.10 1.08 1.06 1.13 1.26 1.40 1.61 1.71 1.95 1.99 2.15 2.25 2.27 2.13 1.93 1.78 1.73 1.69 1.67 1.84 2.04 2.09 1.97 1.80 1.58 1.48 1.33 1.24 1.22 1.19 1.17 1.14
0.86 0.80 0.79 0.77 0.81 0.86 1.08 1.09 0.97 0.85 0.91 1.05 1.12 1.08 1.06 1.14 1.23 1.33 1.38 1.63 1.83 1.99 2.12 2.11 2.09 1.93 1.77 1.68 1.78 1.82 1.84 1.91 2.03 1.96 1.77 1.80 1.71 1.53 1.38 1.25 1.33 1.38 1.38
0.87 0.86 0.77 0.69 0.69 0.76 0.85 0.84 0.90 0.86 0.88 0.95 1.04 1.10 1.14 1.10 1.19 1.27 1.30 1.42 1.53 1.60 1.75 1.87 1.88 1.79 1.77 1.70 1.78 1.83 1.84 1.79 1.69 1.75 1.71 1.79 1.80 1.63 1.44 1.36 1.41 1.35 1.34
0.79 0.85 0.78 0.73 0.76 0.77 0.81 0.83 0.88 0.85 0.95 1.03 1.03 1.02 1.16 1.20 1.23 1.40 1.38 1.47 1.42 1.38 1.42 1.49 1.64 1.68 1.65 1.75 1.83 1.99 2.07 1.94 1.79 1.79 1.76 1.71 1.63 1.54 1.38 1.37 1.42 1.28 1.23
0.74 0.69 0.72 0.87 0.87 0.89 0.99 0.91 0.83 0.85 0.96 1.03 0.99 1.02 1.14 1.21 1.41 1.53 1.53 1.52 1.42 1.36 1.45 1.56 1.68 1.77 1.78 1.85 1.93 2.00 2.04 2.03 1.95 1.88 1.74 1.62 1.50 1.50 1.44 1.35 1.33 1.36 1.29
0.74 0.75 0.77 0.90 0.94 0.97 1.03 0.91 0.88 0.92 1.01 1.09 1.06 1.05 1.27 1.24 1.36 1.43 1.47 1.58 1.56 1.44 1.42 1.44 1.48 1.55 1.54 1.63 1.89 1.91 2.03 2.13 1.97 1.89 1.73 1.63 1.58 1.70 1.78 1.52 1.30 1.27 1.26

GEFSMA_prec_meanprecacc_366.txt.gz
Total_Precipitation_Accumulation
1.44 1.37 1.46 1.71 1.81 1.90 2.15 2.26 2.12 2.03 1.97 1.86 1.72 1.57 1.48 1.39 1.38 1.38 1.82 2.38 2.96 3.66 4.21 4.23 3.85 3.31 3.05 3.12 3.00 2.84 2.69 2.86 3.44 3.60 3.53 3.50 3.37 3.40 3.21 2.82 2.57 2.51 2.51
1.44 1.42 1.35 1.50 1.81 1.94 2.03 2.04 1.95 1.97 1.97 1.90 1.76 1.70 1.65 1.44 1.53 1.52 1.62 1.72 2.01 2.54 3.40 4.04 3.94 3.49 3.20 3.10 2.95 2.82 2.65 2.64 3.25 3.54 3.57 3.51 3.42 3.43 3.02 2.71 2.64 2.55 2.60
1.40 1.36 1.28 1.39 1.67 1.91 1.99 2.00 1.91 1.98 1.89 1.74 1.77 1.77 1.73 1.60 1.64 1.69 1.66 1.64 1.56 1.85 2.54 3.36 3.65 3.59 3.49 3.44 3.21 3.02 2.90 2.92 3.04 3.33 3.49 3.53 3.44 3.32 2.95 2.67 2.51 2.59 2.71
1.38 1.49 1.44 1.38 1.59 1.86 2.13 2.30 2.15 2.09 2.02 1.90 1.92 1.87 1.73 1.76 1.72 1.71 1.67 1.68 1.70 1.58 1.80 2.22 2.75 3.29 3.57 3.76 3.56 3.36 3.01 2.71 2.65 2.94 3.24 3.46 3.53 3.31 3.18 2.93 2.68 2.68 2.88
1.36 1.56 1.67 1.59 1.67 1.92 2.06 2.14 2.17 2.06 2.04 1.97 1.81 1.77 1.69 1.75 1.80 1.64 1.62 1.64 1.72 1.70 1.64 1.49 1.75 2.31 2.94 3.68 3.91 3.57 3.26 2.85 2.56 2.63 2.87 3.18 3.42 3.34 3.21 3.02 2.79 2.64 2.71
1.62 1.70 1.80 1.82 1.85 2.01 2.04 2.22 2.45 2.29 2.08 2.02 1.82 1.72 1.67 1.69 1.71 1.69 1.74 1.74 1.75 1.72 1.69 1.53 1.49 1.49 1.94 2.70 3.40 3.37 3.38 3.18 2.77 2.62 2.73 2.84 3.05 3.21 2.99 2.93 2.94 2.76 2.65
1.88 1.97 2.05 2.12 2.07 2.01 2.10 2.31 2.73 2.69 2.35 2.10 2.08 1.97 1.82 1.76 1.78 1.72 1.83 1.90 1.80 1.75 1.80 1.73 1.61 1.48 1.41 1.62 2.24 2.92 3.21 3.39 3.16 2.87 2.80 2.86 2.89 3.10 3.00 2.86 3.07 3.07 2.92
1.95 2.01 2.21 2.34 2.30 2.30 2.38 2.44 2.73 2.95 2.71 2.49 2.50 2.70 2.48 2.26 1.88 1.57 1.60 1.67 1.72 1.76 1.75 1.77 1.69 1.57 1.54 1.48 1.41 1.97 2.51 2.94 3.20 3.06 2.90 2.90 2.93 3.07 3.18 3.12 3.12 3.32 3.26
2.14 2.09 2.17 2.36 2.38 2.39 2.47 2.65 2.94 3.31 3.34 3.01 2.74 2.97 2.76 2.47 2.35 1.82 1.49 1.50 1.62 1.74 1.76 1.83 1.79 1.66 1.61 1.66 1.47 1.36 1.59 2.09 2.83 3.16 3.19 3.16 3.13 3.17 3.23 3.30 3.49 3.46 3.42
2.10 2.11 2.16 2.30 2.47 2.63 2.78 2.80 2.75 3.22 3.61 3.43 3.16 2.75 2.46 2.33 2.47 2.34 1.86 1.52 1.54 1.58 1.65 1.66 1.77 1.86 1.80 1.73 1.59 1.22 1.15 1.45 2.32 3.18 3.52 3.42 3.23 3.19 3.39 3.58 3.63 3.34 3.26
2.23 2.15 2.13 2.14 2.16 2.29 2.46 2.60 2.65 2.92 3.21 3.44 3.40 3.15 2.83 2.63 2.16 2.16 2.24 1.99 1.70 1.45 1.42 1.56 1.75 1.84 1.84 1.73 1.74 1.37 1.13 1.08 1.49 2.36 3.17 3.49 3.44 3.41 3.64 3.76 3.54 3.30 3.20
2.20 2.08 2.00 2.05 2.04 2.03 2.17 2.31 2.45 2.74 2.94 3.11 3.20 3.11 3.02 2.94 2.61 2.31 2.11 2.06 1.92 1.66 1.48 1.48 1.56 1.64 1.72 1.67 1.56 1.56 1.32 1.06 1.08 1.38 1.98 2.75 3.13 3.30 3.49 3.65 3.62 3.36 3.39
1.78 1.75 1.67 1.68 1.78 1.84 1.99 2.08 2.05 2.14 2.37 2.59 2.78 2.85 2.89 2.79 2.71 2.63 2.46 2.19 1.92 1.59 1.56 1.47 1.44 1.55 1.57 1.68 1.65 1.79 1.43 1.20 1.09 1.08 1.30 1.70 2.11 2.53 3.06 3.36 3.60 3.63 3.69
1.43 1.40 1.39 1.39 1.44 1.49 1.67 1.89 1.92 1.94 2.04 2.16 2.22 2.52 2.72 2.68 2.71 2.51 2.39 2.40 2.12 1.77 1.58 1.37 1.26 1.31 1.39 1.51 1.79 1.90 1.41 1.31 1.15 1.16 1.25 1.28 1.47 1.71 2.22 2.73 3.01 3.29 3.50
1.18 1.18 1.21 1.29 1.35 1.32 1.40 1.52 1.72 1.79 1.87 1.96 1.97 2.16 2.36 2.44 2.45 2.29 2.31 2.40 2.31 1.99 1.73 1.52 1.42 1.33 1.32 1.37 1.67 1.58 1.43 1.39 1.28 1.26 1.26 1.22 1.25 1.37 1.66 1.90 2.14 2.32 2.51
1.07 1.08 1.07 1.13 1.20 1.22 1.30 1.41 1.43 1.54 1.63 1.81 1.99 2.11 2.16 2.20 2.27 2.20 2.19 2.30 2.30 2.13 1.86 1.59 1.41 1.33 1.38 1.31 1.52 1.44 1.53 1.60 1.32 1.19 1.15 1.18 1.16 1.12 1.16 1.28 1.41 1.55 1.66
0.91 0.92 0.95 1.05 1.08 1.11 1.15 1.16 1.17 1.24 1.31 1.44 1.51 1.66 1.89 2.07 2.16 2.17 2.23 2.30 2.32 2.18 1.91 1.73 1.46 1.41 1.51 1.44 1.45 1.44 1.55 1.59 1.36 1.23 1.09 1.05 1.07 1.03 1.09 1.09 1.08 1.15 1.25
0.86 0.89 0.97 1.00 1.01 1.07 1.10 1.07 1.09 1.15 1.26 1.34 1.37 1.40 1.50 1.77 1.94 2.07 2.18 2.22 2.26 2.21 2.02 1.97 1.84 1.59 1.50 1.47 1.57 1.67 1.63 1.63 1.56 1.53 1.36 1.15 1.08 1.06 1.05 1.05 1.02 0.98 0.98
1.02 1.05 1.06 1.09 1.03 1.05 1.07 1.06 1.10 1.17 1.18 1.22 1.25 1.27 1.37 1.48 1.64 1.76 1.91 2.04 2.09 2.20 2.18 1.97 2.00 1.91 1.65 1.60 1.61 1.70 1.77 1.88 1.75 1.69 1.72 1.53 1.32 1.23 1.15 1.07 1.00 0.97 0.94
0.93 0.95 1.00 1.08 1.16 1.20 1.17 1.13 1.18 1.21 1.16 1.15 1.18 1.25 1.30 1.32 1.51 1.75 1.86 1.97 2.03 2.15 2.28 2.17 2.07 2.00 1.83 1.75 1.72 1.75 1.91 2.01 1.99 1.73 1.62 1.56 1.50 1.40 1.30 1.21 1.08 1.06 1.05
0.84 0.83 0.90 0.96 1.08 1.17 1.21 1.22 1.11 1.05 1.08 1.13 1.10 1.08 1.16 1.29 1.42 1.63 1.73 1.97 2.01 2.17 2.27 2.29 2.15 1.95 1.80 1.75 1.72 1.72 1.90 2.09 2.12 2.00 1.83 1.60 1.49 1.34 1.26 1.24 1.22 1.19 1.17
0.90 0.84 0.83 0.80 0.82 0.87 1.09 1.11 0.99 0.88 0.95 1.09 1.14 1.10 1.09 1.17 1.26 1.36 1.40 1.65 1.85 2.00 2.13 2.12 2.11 1.95 1.80 1.71 1.82 1.88 1.90 1.97 2.07 1.98 1.79 1.82 1.73 1.54 1.39 1.26 1.34 1.40 1.40
0.89 0.88 0.79 0.71 0.70 0.77 0.87 0.86 0.92 0.88 0.91 0.99 1.07 1.12 1.16 1.13 1.23 1.29 1.32 1.44 1.55 1.62 1.76 1.88 1.89 1.80 1.79 1.72 1.82 1.89 1.91 1.84 1.74 1.78 1.73 1.81 1.81 1.64 1.45 1.37 1.43 1.37 1.37
0.81 0.87 0.79 0.74 0.77 0.78 0.82 0.85 0.90 0.87 0.97 1.06 1.06 1.05 1.18 1.23 1.28 1.43 1.40 1.49 1.43 1.38 1.43 1.50 1.65 1.70 1.67 1.77 1.87 2.04 2.14 2.01 1.85 1.84 1.78 1.72 1.64 1.55 1.38 1.38 1.44 1.31 1.26
0.76 0.71 0.74 0.88 0.87 0.90 1.00 0.92 0.84 0.86 0.98 1.04 1.01 1.04 1.16 1.24 1.45 1.58 1.56 1.53 1.43 1.37 1.46 1.57 1.69 1.78 1.80 1.87 1.96 2.05 2.10 2.09 2.00 1.93 1.78 1.64 1.51 1.51 1.45 1.36 1.35 1.40 1.32
0.77 0.77 0.79 0.91 0.95 0.98 1.04 0.92 0.89 0.93 1.03 1.11 1.08 1.07 1.29 1.27 1.41 1.49 1.50 1.59 1.57 1.44 1.43 1.45 1.49 1.56 1.55 1.64 1.91 1.95 2.09 2.18 2.01 1.93 1.78 1.66 1.61 1.72 1.79 1.53 1.32 1.29 1.30